Flag for Poland Weather past 2 weeks in Tychy, Poland

Now
34 °F

Snow showers. Broken clouds.


Feels Like: 26 °F
Forecast: 31 / 38 °F
Wind: 9 mph from South

Location: Katowice Airport

Current Time: Apr 2, 2015 at 11:57:36 AM

Latest Report: Apr 2, 2015 at 11:30 AM


Visibility: 1 mi

Pressure: 29.62 "Hg

Humidity: 93%

Dew point: 32 °F

Location of TychyLocation

Historic Weather in Tychy — Graph

°F

Tychy temperature yesterday

Maximum temperature yesterday: 43 °F (at 12:00 AM)
Minimum temperature yesterday: 36 °F (at 11:30 PM)
Average temperature yesterday: 40 °F

Past Weeks' High & Low Weather Summary

 TemperatureHumidityPressure
High66 °F (Mar 25, 2:00 PM)100% (Mar 20, 2:30 AM)30.45 "Hg (Mar 20, 2:30 AM)
Low19 °F (Mar 23, 5:00 AM)25% (Mar 23, 1:30 PM)29.24 "Hg (Mar 30, 5:00 AM)
Average42 °F69%29.89 "Hg
* Reported Mar 18 10:00 AM — Apr 2 11:00 AM, Tychy, Weather by CustomWeather, © 2015

Note: Actual official high and low records may vary slightly from our data, if they occured in-between our weather recording intervals... More about our weather records

Advertising

Tychy weather history for previous 24 hours

 ConditionsComfort  
Time TempWeatherWind HumidityBarometerVisibility
11:00 AM
Thu, Apr 2
34 °FSnow showers. Broken clouds.10 mph93%29.62 "Hg1 mi
10:30 AM36 °FSnow flurries. Scattered clouds.16 mph75%29.65 "Hg4 mi
10:00 AM37 °FPassing clouds.10 mph70%29.65 "HgN/A
9:30 AM36 °FSunny.12 mph75%29.68 "Hg10 mi
9:00 AM34 °FPassing clouds.12 mph81%29.68 "HgN/A
8:30 AM34 °FPassing clouds.10 mph75%29.71 "HgN/A
8:00 AM34 °FScattered clouds.10 mph75%29.71 "HgN/A
7:30 AM32 °FPartly sunny.9 mph80%29.74 "HgN/A
7:00 AM32 °FPassing clouds.12 mph80%29.74 "HgN/A
6:30 AM32 °FPassing clouds.12 mph80%29.74 "HgN/A
6:00 AM32 °FPassing clouds.10 mph80%29.74 "HgN/A
5:30 AM32 °FPassing clouds.9 mph80%29.77 "HgN/A
1:00 AM30 °FPassing clouds.16 mph93%29.77 "HgN/A
12:30 AM32 °FSnow flurries. Partly cloudy.15 mph93%29.77 "Hg4 mi
12:00 AM36 °FSnow flurries. Partly cloudy.18 mph70%29.77 "HgN/A
11:30 PM
Wed, Apr 1
36 °FPassing clouds.22 mph65%29.74 "HgN/A
11:00 PM37 °FPassing clouds.21 mph65%29.74 "HgN/A
10:30 PM37 °FPassing clouds.22 mph60%29.74 "HgN/A
10:00 PM37 °FPassing clouds.21 mph65%29.74 "HgN/A
9:30 PM37 °FPassing clouds.17 mph65%29.74 "HgN/A
9:00 PM37 °FPassing clouds.20 mph70%29.74 "HgN/A
8:30 PM37 °FPartly cloudy.21 mph70%29.71 "HgN/A
8:00 PM37 °FSprinkles. Broken clouds.24 mph70%29.71 "HgN/A
7:30 PM37 °FBroken clouds.24 mph70%29.68 "HgN/A
7:00 PM41 °FScattered clouds.20 mph61%29.65 "HgN/A
6:30 PM41 °FScattered clouds.24 mph57%29.65 "HgN/A
6:00 PM41 °FPassing clouds.22 mph61%29.65 "HgN/A
5:30 PM41 °FScattered clouds.26 mph61%29.65 "HgN/A
5:00 PM43 °FBroken clouds.28 mph49%29.65 "HgN/A
4:30 PM41 °FSprinkles. Broken clouds.24 mph66%29.62 "HgN/A
4:00 PM43 °FPassing clouds.28 mph57%29.62 "HgN/A
3:30 PM43 °FScattered clouds.26 mph57%29.62 "HgN/A
3:00 PM43 °FScattered clouds.30 mph57%29.62 "HgN/A
2:30 PM39 °FSnow flurries. Scattered clouds.32 mph70%29.62 "HgN/A
2:00 PM41 °FPartly sunny.29 mph66%29.62 "HgN/A
1:30 PM41 °FPartly sunny.24 mph61%29.62 "HgN/A
1:00 PM39 °FSprinkles. Broken clouds.28 mph70%29.62 "HgN/A
12:30 PM39 °FSprinkles. Broken clouds.26 mph75%29.59 "HgN/A
12:00 PM39 °FBroken clouds.30 mph75%29.59 "HgN/A
11:30 AM37 °FSnow flurries. Broken clouds.24 mph81%29.56 "Hg5 mi
11:00 AM37 °FSnow flurries. Broken clouds.26 mph81%29.56 "Hg5 mi
Weather by CustomWeather, © 2015

See weather overviewHow to use our weather pages